Regional Weather Roundup
Issued by NWS Upton, NY

Current Version | Previous Version | Text Only | Print | Product List | Glossary Off
Versions: 1 2 3 4 5 6 7 8 9 10 11 12 13 14 15 16 17 18 19 20 21 22 23 24 25 26 27

000
ASUS41 KOKX 181108
RWROKX

REGIONAL WEATHER ROUNDUP
NATIONAL WEATHER SERVICE NEW YORK NY
600 AM EST SAT NOV 18 2017

NOTE: "FAIR" INDICATES FEW OR NO CLOUDS BELOW 12,000 FEET WITH NO
SIGNIFICANT WEATHER AND/OR OBSTRUCTIONS TO VISIBILITY.

NYZ071-072-176-178-NJZ106-104-181200-
NEW YORK CITY METRO AREA

CITY           SKY/WX    TMP DP  RH WIND       PRES   REMARKS
Central Park   CLOUDY    37  19  48 CALM      30.01F
Bronx Bot Gard   N/A     32  19  59 E1        30.01F
LaGuardia APRT MOCLDY    37  21  52 S3        30.00S
Kennedy INTL   CLOUDY    31  26  82 CALM      30.01F
Breezy Point     N/A     39 N/A N/A SW6         N/A  WCI  35
Newark/Liberty MOCLDY    32  23  69 W6        30.00F WCI  26
Teterboro      PTCLDY    30  23  75 CALM      29.99F
$$

NYZ177-179-078>081-181200-
LONG ISLAND NEW YORK

CITY           SKY/WX    TMP DP  RH WIND       PRES   REMARKS
Jones Beach      N/A     39 N/A N/A CALM        N/A
Matinecock PT    N/A     37 N/A N/A SW5         N/A  WCI  34
Farmingdale    PTCLDY    27  23  85 CALM      30.01S
MacArthur/ISP  PTCLDY    27  23  85 CALM      29.99F
Shirley        CLEAR     24  22  91 CALM      30.01S
Mt Sinai Harb    N/A    N/A N/A N/A S2          N/A
Westhampton    CLEAR     18  13  80 CALM      30.01F
East Hampton   FAIR      22  18  86 CALM      29.99F
Southold       NOT AVBL
Montauk          N/A     39  29  67 SW3       30.00S
$$

NYZ052-065-067-181200-
HUDSON VALLEY

CITY           SKY/WX    TMP DP  RH WIND       PRES   REMARKS
White Plains   CLOUDY    27  22  81 NW3       29.97F
Larchmont Harb   N/A     32 N/A N/A NW3         N/A
Croton On Huds   N/A    N/A N/A N/A NE3         N/A
Newburgh       CLEAR     23  21  93 CALM      29.97F
Montgomery     CLOUDY    21  18  88 CALM      29.96F
Poughkeepsie   CLOUDY    20  16  84 CALM      29.98F
Albany         CLOUDY    22  17  81 CALM      29.96F
$$

NJZ001-105-106-008-010-013-015-019>022-104-181200-
NEW JERSEY

CITY           SKY/WX    TMP DP  RH WIND       PRES   REMARKS
Newark/Liberty MOCLDY    32  23  69 W6        30.00F WCI  26
Teterboro      PTCLDY    30  23  75 CALM      29.99F
Caldwell       CLOUDY    26  22  84 CALM      30.01S
Somerville     CLOUDY    23  22  96 CALM      29.99F
Linden         FAIR      30  23  74 CALM      30.01S
Perth Amboy      N/A     34 N/A N/A W5          N/A  WCI  30
Sussex         CLOUDY    23  20  88 CALM      29.96F
Andover        NOT AVBL
Trenton        CLOUDY    28  24  85 CALM      29.99F
Millville      PTCLDY    28  26  92 CALM      30.02F
Atlantic City  PTCLDY    28  25  88 CALM      30.02F
Wrightstown    CLOUDY    27  24  86 CALM      29.98F
Toms River     MOCLDY    22  20  92 CALM      30.02F
Belmar         PTCLDY    30  23  75 S5        30.01F WCI  25
$$

PAZ047>061-062-071-181200-
EASTERN PENNSYLVANIA

CITY           SKY/WX    TMP DP  RH WIND       PRES   REMARKS
Philadelphia   CLOUDY    34  29  82 SE3       30.00F
Allentown      CLOUDY    28  21  75 NE6       29.96F WCI  22
Scranton       CLOUDY    32  23  69 CALM      29.88F
$$

CTZ002-004>006-009-010-012-RIZ004-006-007-MAZ004-011-015-181200-
SOUTHERN NEW ENGLAND
 IN CT

CITY           SKY/WX    TMP DP  RH WIND       PRES   REMARKS
Bradley INTL   CLOUDY    22  18  85 CALM      29.99S
Hartford       CLEAR     24  21  88 CALM      30.00S
Danbury        CLOUDY    22  17  81 CALM      29.99F
Wtrbury/Oxford CLOUDY    23  17  78 W3        29.97F
Norwalk Harbor   N/A    N/A N/A N/A NW5         N/A
Bridgeport     CLEAR     30  18  60 CALM      30.00S
Meriden        CLEAR     22  19  89 CALM      30.00F
New Haven      CLEAR     25  17  72 CALM      30.00S
Chester        FAIR      28  14  54 CALM      29.98S
Groton         PTCLDY    26  21  81 NE5       29.99S WCI  20
Wilimantic     PTCLDY    24  20  84 CALM      29.99F

 IN RI

CITY           SKY/WX    TMP DP  RH WIND       PRES   REMARKS
Providence     CLEAR     27  19  72 W6        30.00F WCI  20
Block Island   CLEAR     34  24  67 W5        30.00S WCI  30
Westerly       PTCLDY    26  22  84 CALM      30.00S
 IN MA

CITY           SKY/WX    TMP DP  RH WIND       PRES   REMARKS
Boston         CLEAR     31  19  61 SW5       29.98S WCI  26
Worcester      CLOUDY    26  13  57 W12       29.93F WCI  16
Westfield      CLOUDY    21  18  88 CALM      29.98S
Provincetown   CLEAR     35  23  61 W9        29.99R WCI  28
Nantucket      CLEAR     33  24  69 W8        29.99R WCI  26
$$

ANZ330-335-338-340-345-350-353-355-181200-
COASTAL MARINE OBSERVATIONS


STATION/POSITION TIME  SKY/WX   TEMP    WIND        PRES    VSBY  WAVE
                                AIR SEA DIR/SP/G                  HT/PER
                 (UTC)          (F)     (DEG/KT/KT) (MB)    (MI)  (FT/S)
NY HARB ENTRANCE 0950            46 56  250/  6/  8 1015.9          1/10
20 S FIRE ISLAND 0950            46 57  220/  4/  6 1016.4          1/11
GREAT SOUTH BAY  1030            40 46  250/  2/  4   N/A
HUDSON CANYON    0950            50 60  230/  4/  6 1016.1          3/ 5
KINGS POINT      NOT AVBL
EXECUTION ROCKS  1045            39     160/  4/  6   N/A
WESTERN LI SOUND 0949            38     300/  4/  6   N/A           0
CENTRAL LI SOUND 0953            42     290/  8/ 10   N/A           1
ROBBINS REEF     NOT AVBL
$$


>>>>>>>>>>>>>>>>>>>>>>>>>>>> KEY <<<<<<<<<<<<<<<<<<<<<<<<<<<
>                                                          <
>     SKY/WX - Sky Condition/Present Weather               <
>     TMP    - Temperature in Fahrenheit                   <
>     DP     - Dew Point in Fahrenheit                     <
>     RH     - Relative Humidity in Percent                <
>     WIND   - Direction (from) and Speed in MPH           <
>     PRES   - Mean Sea Level Pressure (inches of Hg)      <
>     WCI    - Wind Chill Index                            <
>     VSB    - VISIBILITY IN MILES                         <
>     HX     - HEAT INDEX                                  <
>     TC     - TEMPERATURE IN CELSIUS                      <
>     VRB    - VARIABLE WIND DIRECTION                     <
>                                                          <
>>>>>>>>>>>>>>>>>>>>>>>>>>>> KEY <<<<<<<<<<<<<<<<<<<<<<<<<<<




USA.gov is the U.S. government's official web portal to all federal, state and local government web resources and services.